Location: Praha
(50.0830°N, 14.4670°E)
Time: 04:41:55
(UTC+01:00)

ISS - Pass Details

Date: 26 February 2021
Orbit: 417 x 422 km, 51.6° (Epoch: 03 March)

Event Time Altitude Azimuth Distance (km) Brightness Sun altitude
Exits shadow 05:37:39 21° 251° (WSW) 989 -2.5 -12.6°
Maximum altitude 05:39:44 87° 166° (SSE) 424 -3.8 -12.3°
Drops below altitude 10° 05:43:07 10° 75° (ENE) 1,500 0.4 -11.7°
Sets 05:45:13 0° 75° (ENE) 2,366 1.8 -11.4°
